Simultaneous Nadir Overpasses (SNOs) Predictions

Prediction of SNOs between AQUA and METOP-B Satellite Orbit:

Table of predicted SNOs for the next 14.0 days since TLE Epoch: 3/6/2020
Index Date (AQUA) Time (AQUA) Lat,Lon (AQUA) SZA (AQUA ) Date (METOP-B) Time (METOP-B) Lat,Lon (METOP-B) SZA (METOP-B ) Distance(km) Time Diff (sec)
1 03/07/2020 12:07:10 73.78, -7.43 78.84 03/07/2020 12:06:02 73.77, -7.34 78.84 3.24 68
2 03/07/2020 12:56:37 -73.83, 160.09 101.12 03/07/2020 12:56:43 -73.81, 160.10 101.14 1.86 6
3 03/07/2020 13:46:07 73.98, -32.61 79.04 03/07/2020 13:47:19 74.00, -32.13 79.02 14.96 72
4 03/10/2020 07:41:24 73.79, 58.99 77.75 03/10/2020 07:40:25 73.78, 59.10 77.74 3.69 59
5 03/10/2020 08:30:51 -73.84,-133.49 102.22 03/10/2020 08:31:06 -73.82,-133.47 102.23 1.89 15
6 03/10/2020 09:20:28 74.36, 32.97 78.34 03/10/2020 09:21:35 74.35, 35.17 78.24 66.22 67
7 03/13/2020 03:15:36 73.76, 125.50 76.60 03/13/2020 03:14:48 73.74, 125.41 76.60 3.50 48
8 03/13/2020 04:05:04 -73.86, -67.08 103.31 03/13/2020 04:05:28 -73.84, -67.04 103.34 3.29 24
9 03/15/2020 22:49:50 73.79,-168.12 75.51 03/15/2020 22:49:10 73.80,-168.04 75.53 2.55 40
10 03/15/2020 23:39:17 -73.84, -0.59 104.45 03/15/2020 23:39:51 -73.84, -0.61 104.45 0.84 34
11 03/18/2020 18:24:03 73.77,-101.64 74.38 03/18/2020 18:23:34 73.76,-101.74 74.37 3.64 29
12 03/18/2020 19:13:31 -73.88, 65.78 105.53 03/18/2020 19:14:14 -73.85, 65.82 105.56 3.18 43




NCC Satellite Simultaneous Nadir Overpasses (SNOs) Prediction Service
